LVFUH SADF-SUMU

Flight info

Callsign LVFUH
Flight time N/A
Altitude 19000
Route DORVO DCT TOKAM
Aircraft BE9L/L-SBDFGRY/SB1

Departure

Time 2026-04-26 23:05
Airport San Fernando Airport (SADF)

Arrival

Time N/A
Airport Carrasco General Cesáreo L. Berisso International Airport (SUMU)
Time Latitude Longitude Altitude Speed Heading
2026-04-26 22:16 -34.45179 -58.58004 14 ft 0 kts 56°
2026-04-26 22:56 -34.45178 -58.58004 14 ft 0 kts 56°
2026-04-26 23:00 -34.45142 -58.58018 13 ft 15 kts 291°
2026-04-26 23:00 -34.45129 -58.58124 14 ft 16 kts 327°
2026-04-26 23:01 -34.45033 -58.58189 14 ft 12 kts 334°
2026-04-26 23:01 -34.44943 -58.58247 14 ft 4 kts 331°
2026-04-26 23:01 -34.44865 -58.58315 14 ft 17 kts 311°
2026-04-26 23:01 -34.44863 -58.58393 13 ft 6 kts 225°
2026-04-26 23:02 -34.44864 -58.58395 13 ft 0 kts 224°
2026-04-26 23:04 -34.44913 -58.58451 13 ft 43 kts 222°
2026-04-26 23:04 -34.45331 -58.58950 146 ft 114 kts 232°
2026-04-26 23:05 -34.45883 -58.59873 352 ft 152 kts 237°
2026-04-26 23:05 -34.46656 -58.60907 513 ft 171 kts 226°
2026-04-26 23:05 -34.47482 -58.62001 757 ft 183 kts 235°
2026-04-26 23:05 -34.47954 -58.63397 1201 ft 172 kts 270°
2026-04-26 23:06 -34.47497 -58.64707 1822 ft 183 kts 298°
2026-04-26 23:06 -34.46641 -58.65916 2004 ft 198 kts 302°
2026-04-26 23:06 -34.45602 -58.67126 2012 ft 219 kts 312°
2026-04-26 23:06 -34.44297 -58.68106 2020 ft 222 kts 326°
2026-04-26 23:07 -34.42810 -58.68670 2020 ft 228 kts 341°